Davenport, IA

9:15 AM CST on November 15, 2019 (GMT -0600)
Davenport Municipal

Weather History for KDVN - October, 2019

Change the Weather History Date:

Wednesday, October 23, 2019

  Actual Average Record
Temperature  
Mean Temperature 46 °F 49 °F  
Max Temperature 61 °F 60 °F 84 °F (1963)
Min Temperature 31 °F 39 °F 24 °F (1981)
Degree Days  
Heating Degree Days 19 16  
Month to date heating degree days 267 284  
Since 1 July heating degree days 285 419  
Cooling Degree Days 0 0  
Month to date cooling degree days 18 11  
Year to date cooling degree days 1027 785  
Moisture  
Dew Point 36 °F    
Average Humidity 68    
Maximum Humidity 92    
Minimum Humidity 44    
Precipitation  
Precipitation 0.05 in 0.09 in 1.00 in (2010)
Month to date precipitation 1.98 2.22  
Year to date precipitation 40.78 31.10  
Snow  
Snow 0.00 in - - ()
Month to date snowfall 0.0  
Since 1 July snowfall 0.0  
Since 1 September snowfall 0.0  
Snow Depth 0.00 in    
Sea Level Pressure  
Sea Level Pressure 29.93 in    
Wind  
Wind Speed 7 mph (SW)    
Max Wind Speed 21 mph    
Max Gust Speed 28 mph    
Visibility 10 miles    
Events Rain    
T = Trace of Precipitation, MM = Missing Value Source: NWS Daily Summary

Daily Weather History Graph

Daily Weather History Graph

Search for Another Location

Airport or City:

Astronomy

Oct. 23, 2019 Rise Set
Actual Time 7:23 AM CDT 6:09 PM CDT
Civil Twilight 6:55 AM CDT 6:37 PM CDT
Nautical Twilight 6:22 AM CDT 7:10 PM CDT
Astronomical Twilight 5:50 AM CDT 7:42 PM CDT
Moon 1:36 AM CDT (10/23) 4:05 PM CDT (10/23)
Length of Visible Light 11h 42m
Length of Day
10h 46m
Waning Crescent, 26% of the Moon is Illuminated
Oct 23
Waning Crescent
Oct 27
New
Nov 4
First Quarter
Nov 12
Full
Nov 19
Last Quarter

Hourly Weather History & Observations

Time (CDT) Temp. Windchill Dew Point Humidity Pressure Visibility Wind Dir Wind Speed Gust Speed Precip Events Conditions
12:52 AM 41.0 °F 35.2 °F 30.0 °F 65% 29.87 in 10.0 mi SW 9.2 mph - N/A   Clear
1:52 AM 39.9 °F 34.5 °F 30.9 °F 70% 29.87 in 10.0 mi SW 8.1 mph - N/A   Clear
2:52 AM 39.9 °F 35.8 °F 30.9 °F 70% 29.88 in 10.0 mi SW 5.8 mph - N/A   Clear
3:52 AM 37.0 °F 34.5 °F 30.9 °F 79% 29.88 in 10.0 mi WSW 3.5 mph - N/A   Clear
4:52 AM 32.0 °F - 28.0 °F 85% 29.90 in 10.0 mi Calm Calm - N/A   Clear
5:52 AM 30.9 °F 27.5 °F 28.0 °F 89% 29.91 in 10.0 mi SSE 3.5 mph - N/A   Clear
6:52 AM 34.0 °F 29.8 °F 30.0 °F 85% 29.91 in 10.0 mi SSE 4.6 mph - N/A   Clear
7:52 AM 37.9 °F 33.5 °F 33.1 °F 83% 29.92 in 10.0 mi South 5.8 mph - N/A   Scattered Clouds
8:52 AM 42.1 °F 39.2 °F 35.1 °F 76% 29.94 in 10.0 mi SSW 4.6 mph - 0.00 in Rain Light Rain
9:52 AM 44.1 °F 41.5 °F 39.0 °F 82% 29.95 in 10.0 mi SSW 4.6 mph - 0.02 in Rain Light Rain
10:52 AM 45.0 °F 41.8 °F 41.0 °F 86% 29.94 in 10.0 mi SSE 5.8 mph - 0.01 in   Mostly Cloudy
11:52 AM 50.0 °F - 42.1 °F 74% 29.94 in 10.0 mi South 9.2 mph - N/A   Clear
1:52 PM 57.9 °F - 41.0 °F 53% 29.88 in 10.0 mi South 10.4 mph - N/A   Clear
2:52 PM 59.0 °F - 37.9 °F 46% 29.84 in 10.0 mi SE 10.4 mph - N/A   Partly Cloudy
3:52 PM 57.9 °F - 39.0 °F 49% 29.84 in 10.0 mi SE 11.5 mph - 0.00 in   Clear
4:52 PM 55.9 °F - 39.9 °F 55% 29.90 in 10.0 mi SSW 6.9 mph - 0.00 in Rain Light Rain
5:52 PM 55.0 °F - 41.0 °F 59% 29.91 in 10.0 mi West 4.6 mph - 0.00 in   Overcast
6:52 PM 52.0 °F - 43.0 °F 71% 29.92 in 10.0 mi NNW 4.6 mph - N/A   Overcast
7:52 PM 50.0 °F - 42.1 °F 74% 29.96 in 10.0 mi North 15.0 mph 24.2 mph 0.00 in   Overcast
8:52 PM 45.0 °F 39.3 °F 41.0 °F 86% 29.98 in 10.0 mi North 11.5 mph - 0.02 in   Overcast
9:52 PM 43.0 °F 36.0 °F 39.0 °F 86% 30.02 in 10.0 mi North 13.8 mph 18.4 mph N/A   Mostly Cloudy
10:52 PM 42.1 °F 36.6 °F 37.9 °F 85% 30.07 in 10.0 mi North 9.2 mph - N/A   Mostly Cloudy
11:52 PM 42.1 °F 39.2 °F 37.9 °F 85% 30.09 in 10.0 mi NNW 4.6 mph - N/A   Overcast